Regional Weather Roundup
Issued by NWS

Home | Current Version | Previous Version | Text Only | Print | Product List | Glossary Off
Versions: 1 2 3 4 5 6 7 8 9 10 11 12 13 14 15 16 17 18 19 20 21 22 23 24 25 26 27 28 29 30 31 32 33 34 35 36 37 38 39 40 41 42 43 44 45 46 47 48 49 50

000
ASUS43 KFSD 040110
RWRSD

WEATHER ROUNDUP FOR SOUTH DAKOTA
NATIONAL WEATHER SERVICE SIOUX FALLS SD
700 PM CST SAT DEC 03 2016

NOTE: "FAIR" INDICATES FEW OR NO CLOUDS BELOW 12,000 FEET WITH NO
SIGNIFICANT WEATHER AND/OR OBSTRUCTIONS TO VISIBILITY.


SDZ001>005-009-010-012>017-040200-
NORTHWEST AND NORTH CENTRAL SOUTH DAKOTA

CITY           SKY/WX    TMP DP  RH WIND       PRES   REMARKS
BUFFALO          N/A     31  25  78 W12       29.77S WCI  22
FAITH            N/A     27  25  92 S9        29.85F WCI  18
MOBRIDGE       PTCLDY    28  23  81 SW5       29.86F WCI  23
$$

SDZ012>016-024>037-041>051-057-063-072>074-040200-
SOUTHWEST AND SOUTH CENTRAL SOUTH DAKOTA

CITY           SKY/WX    TMP DP  RH WIND       PRES   REMARKS
RAPID CTY ARPT CLOUDY    33  22  63 W6        29.90F WCI  28
PIERRE         CLEAR     30  22  72 W6        29.90F WCI  24
CUSTER         CLOUDY    26  18  71 W6        29.88S WCI  19
ELLSWORTH AFB  CLOUDY    35  24  63 W7        29.89F WCI  29
PHILIP         CLOUDY    32  25  75 W6        29.92F WCI  26
PINE RIDGE     PTCLDY    28  20  71 S5        29.93S WCI  23
SPEARFISH      FAIR      34  23  64 W10       29.89S WCI  26
WINNER         FAIR      32  22  66 W7        29.93R WCI  26
$$

SDZ004>011-016>023-039-040-040200-
NORTHEAST SOUTH DAKOTA

CITY           SKY/WX    TMP DP  RH WIND       PRES   REMARKS
ABERDEEN       PTCLDY    33  30  88 S13       29.95S WCI  24
WATERTOWN      CLOUDY    33  31  92 S22G30    29.97F WCI  21
BROOKINGS      CLOUDY    33  32  96 S20       30.00F WCI  21
SISSETON         N/A     33  32  96 S15       29.99F WCI  23
$$

SDZ017-020-022-023-036>040-048>070-040200-
SOUTHEAST SOUTH DAKOTA

CITY           SKY/WX    TMP DP  RH WIND       PRES   REMARKS
SIOUX FALLS    DRIZZLE   34  33  96 S16G26    30.05F FOG     WCI  24
HURON          CLEAR     33  32  96 S15       29.96S WCI  23
CHAMBERLAIN    CLOUDY    33  31  92 CALM      29.92S
MITCHELL       CLOUDY    36  34  92 S20G25    29.99S
YANKTON        CLOUDY    36  30  80 S12       30.05F
$$

ABBREVIATIONS USED IN REMARKS
   TC - TEMPERATURE IN CELSIUS
  WCI - WIND CHILL INDEX
   HX - HEAT INDEX
  VSB - VISIBILITY





USA.gov is the U.S. government's official web portal to all federal, state and local government web resources and services.